[[{"header":{"parameterUnit":"m.s-1","parameterCategory":1,"la1":30.2991,"la2":30.254,"lo1":-89.0895,"lo2":-89.0444,"dy":0.0017,"dx":0.0017,"nx":28,"ny":28,"refTime":"2025-11-05T03:00:00:Z","depth":0,"parameterNumber":2,"parameterNumberName":"U-component_of_WINDS"},"data":[0,0,0,0,0,0,0,0,0,0,0,0,0,0,0,0,0,0,0,0,0,0,0,0,0,0,0,0,0,0,0,0,0,0,0,0,0,0,0,0,0,0,0,0,0,0,0,0,0,0,0,0,0,0,0,0,0,0,-0.8478,-0.8478,0,-0.8495,-0.8495,-0.8495,-0.8419,-0.8416,-0.8414,-0.8412,-0.8434,-0.8436,-0.8439,0,0,0,0,0,0,0,0,0,0,0,0,0,-0.8381,-0.8383,-0.8478,-0.8478,-0.8478,-0.8495,-0.8495,-0.8495,-0.8419,-0.8416,-0.8414,-0.8411,-0.8433,-0.8436,-0.8439,0,0,0,0,0,0,0,0,0,0,0,0,0,-0.8413,-0.8384,-0.8478,-0.8442,-0.8439,-0.8495,-0.8495,-0.8496,-0.842,-0.8416,-0.8413,-0.841,-0.8432,-0.8436,-0.844,-0.8532,0,0,-0.8452,-0.8454,0,0,0,0,0,0,0,0,-0.8412,-0.8417,-0.8447,-0.8444,-0.8441,-0.8451,-0.8469,-0.8508,-0.8421,-0.8427,-0.8412,-0.8408,-0.8442,-0.8445,-0.8456,-0.8533,-0.8534,-0.8452,-0.8455,-0.8456,-0.8457,0,0,0,0,0,0,0,-0.8409,-0.8416,-0.8484,-0.8447,-0.8444,-0.8426,-0.8427,-0.8476,-0.8454,-0.8426,-0.8421,-0.8424,-0.844,-0.8453,-0.8456,-0.8534,-0.8452,-0.8456,-0.8458,-0.846,-0.8689,-0.8692,0,0,0,0,0,0,-0.8411,-0.8414,-0.8484,-0.8485,-0.8418,-0.843,-0.8431,-0.8451,-0.8453,-0.845,-0.8427,-0.842,-0.8447,-0.8452,-0.8457,-0.8566,-0.8456,-0.846,-0.8462,-0.8685,-0.869,-0.8694,0,0,0,0,0,0,-0.841,-0.8418,-0.8483,-0.8448,-0.8455,-0.8436,-0.8459,-0.8454,-0.8466,-0.8453,-0.8449,-0.8443,-0.8445,-0.8451,-0.8514,-0.8566,-0.8462,-0.8466,-0.8681,-0.8687,-0.8692,-0.8786,0,0,0,0,0,0,-0.8407,-0.8418,-0.8453,-0.8449,-0.8457,-0.854,-0.8462,-0.8456,-0.8472,-0.8464,-0.8467,-0.8465,-0.8443,-0.8508,-0.8518,-0.857,-0.8469,-0.8676,-0.8683,-0.869,-0.8778,-0.8794,-0.8808,0,0,0,0,0,-0.8404,-0.8479,-0.8455,-0.8464,-0.85,-0.8543,-0.8547,-0.8519,-0.8477,-0.8512,-0.8504,-0.8465,-0.8558,-0.8515,-0.8525,-0.8579,-0.8673,-0.8681,-0.8689,-0.8772,-0.8791,-0.8807,0,0,0,0,0,0,-0.849,-0.8478,-0.8451,-0.8527,-0.8536,-0.853,-0.8573,-0.854,-0.8563,-0.8555,-0.852,-0.8521,-0.8591,-0.8591,-0.8543,-0.8669,-0.8608,-0.8619,-0.8667,-0.8686,-0.87,-0.87,-0.8472,0,0,0,0,0,-0.8517,-0.8553,-0.854,-0.8609,-0.8614,-0.8593,-0.8611,-0.8588,-0.8597,-0.8601,-0.8597,-0.8609,-0.864,-0.8662,-0.8691,-0.8777,-0.8777,-0.8819,-0.8833,-0.8845,-0.8856,-0.8903,-0.8922,-0.8721,-0.8721,-0.8721,0,0,-0.8575,-0.8573,-0.8598,-0.8626,-0.863,-0.8669,-0.8597,-0.8641,-0.8669,-0.8608,-0.8668,-0.8665,-0.8675,-0.8751,-0.8783,-0.8753,-0.8911,-0.8856,-0.8866,-0.887,-0.8914,-0.8933,-0.895,-0.8726,-0.8725,-0.8725,0,0,-0.8701,-0.8702,-0.8759,-0.8765,-0.8773,-0.8758,-0.8772,-0.877,-0.8766,-0.8824,-0.878,-0.8813,-0.8868,-0.8878,-0.889,-0.9018,-0.8984,-0.9028,-0.9107,-0.9153,-0.9169,-0.9183,-0.9231,-0.9248,-0.9038,-0.9038,-0.9039,0,-0.8773,-0.8828,-0.8793,-0.884,-0.8855,-0.8799,-0.8858,-0.8866,-0.8883,-0.8895,-0.8859,-0.8928,-0.893,-0.9008,-0.9039,-0.905,-0.9066,-0.9029,-0.9169,-0.9182,-0.9195,-0.9241,-0.9259,-0.9044,-0.9043,-0.9043,-0.9042,0,-0.8916,-0.8955,-0.9001,-0.9018,-0.9037,-0.909,-0.9065,-0.9088,-0.9063,-0.9053,-0.9114,-0.9115,-0.9143,-0.9159,-0.9136,-0.9234,-0.9214,-0.9174,-0.9113,-0.922,-0.9263,-0.928,-0.9052,-0.905,-0.9048,-0.9047,0,0,-0.9099,-0.9095,-0.9113,-0.9121,-0.9124,-0.9155,-0.9205,-0.9231,-0.9253,-0.9266,-0.9309,-0.9356,-0.9319,-0.9333,-0.931,-0.935,-0.9454,-0.9305,-0.9305,-0.9335,-0.9565,-0.9597,-0.9618,-0.943,-0.9433,-0.9436,-0.9565,0,-0.9224,-0.931,-0.928,-0.9368,-0.9404,-0.9351,-0.9395,-0.9403,-0.9394,-0.9424,-0.9414,-0.9449,-0.9396,-0.9405,-0.9442,-0.9434,-0.95,-0.9423,-0.9472,-0.9474,-0.9474,-0.964,-0.9674,-0.9796,-0.9581,-0.9584,-0.9586,0,-0.9383,-0.9401,-0.9493,-0.949,-0.9505,-0.9545,-0.9567,-0.9596,-0.9604,-0.9594,-0.9609,-0.9577,-0.9628,-0.9564,-0.9634,-0.9582,-0.96,-0.9599,-0.9603,-0.9609,-0.9539,-0.9653,-0.9834,-0.9854,-0.9611,-0.9609,-0.9607,0,-0.951,-0.9558,-0.9619,-0.9627,-0.9625,-0.9655,-0.9656,-0.966,-0.9678,-0.9697,-0.9709,-0.9734,-0.9749,-0.9769,-0.9746,-0.9701,-0.982,-0.9754,-0.9816,-0.9817,-0.9846,-0.9846,-1.0036,-0.9853,-0.9852,-0.9852,-0.9852,0,-0.9655,-0.9714,-0.9677,-0.9715,-0.9779,-0.9744,-0.9809,-0.9804,-0.9808,-0.9845,-0.98,-0.9836,-0.98,-0.9834,-0.9815,-0.9877,-0.9883,-0.9879,-0.9874,-0.9885,-0.9886,-0.9898,-0.989,-0.9857,-0.9856,-0.9855,-0.9854,0,-0.981,-0.9787,-0.9851,-0.9843,-0.9843,-0.9891,-0.9885,-0.9921,-0.9907,-0.9955,-0.9964,-0.9944,-0.998,-0.9957,-0.9995,-0.9982,-1.0064,-1.0046,-1.0062,-1.0058,-1.0123,-1.0118,-1.033,-1.0357,-1.0154,-1.0156,-1.0158,0,-0.9906,-0.995,-0.9947,-0.9968,-0.9971,-1.0006,-1.0023,-0.999,-1.0011,-1.0023,-1.0057,-1.0089,-1.0114,-1.0175,-1.0164,-1.0193,-1.0177,-1.0249,-1.0181,-1.0191,-1.0181,-1.018,-1.0186,-1.0264,-1.0266,-1.0268,-1.027,0,-1.0079,-1.0065,-1.0092,-1.0116,-1.0138,-1.0155,-1.0168,-1.0188,-1.0155,-1.018,-1.0216,-1.0235,-1.0272,-1.0306,-1.033,-1.0331,-1.0297,-1.0291,-1.0307,-1.0321,-1.0329,-1.0328,-1.0103,-1.0287,-1.0285,-1.0284,-1.0283,-1.0282,-1.0209,-1.0246,-1.025,-1.0282,-1.0288,-1.0301,-1.0335,-1.0325,-1.0354,-1.0382,-1.036,-1.0404,-1.041,-1.0438,-1.0444,-1.0479,-1.045,-1.0473,-1.048,-1.0487,-1.0497,-1.0321,-1.0483,-1.0482,-1.0482,-1.0481,-1.0481,0,-1.0383,-1.0382,-1.0411,-1.0431,-1.0456,-1.0418,-1.0431,-1.0455,-1.0494,-1.0502,-1.0527,-1.0569,-1.0601,-1.0592,-1.0621,-1.065,-1.0635,-1.0659,-1.0659,-1.066,-1.052,-1.0504,-1.0671,-1.0671,-1.0671,-1.0671,-1.0671,-1.0671,-1.0476,-1.0537,-1.0524,-1.0588,-1.0586,-1.0628,-1.0639,-1.0652,-1.0659,-1.0707,-1.0733,-1.0727,-1.0729,-1.0757,-1.0785,-1.0782,-1.0796,-1.0827,-1.0819,-1.0689,-1.067,-1.0652,-1.0637,-1.083,-1.083,-1.0956,-1.0958,-1.0958]},{"header":{"parameterUnit":"m.s-1","parameterCategory":1,"la1":30.2991,"la2":30.254,"lo1":-89.0895,"lo2":-89.0444,"dy":0.0017,"dx":0.0017,"nx":28,"ny":28,"refTime":"2025-11-05T03:00:00:Z","depth":0,"parameterNumber":3,"parameterNumberName":"V-component_of_WINDS"},"data":[0,0,0,0,0,0,0,0,0,0,0,0,0,0,0,0,0,0,0,0,0,0,0,0,0,0,0,0,0,0,0,0,0,0,0,0,0,0,0,0,0,0,0,0,0,0,0,0,0,0,0,0,0,0,0,0,0,0,-2.2389,-2.2389,0,-2.245,-2.2451,-2.2452,-2.2408,-2.2406,-2.2405,-2.2403,-2.2466,-2.247,-2.2473,0,0,0,0,0,0,0,0,0,0,0,0,0,-2.2233,-2.2236,-2.2388,-2.2389,-2.239,-2.245,-2.2451,-2.2452,-2.2409,-2.2406,-2.2404,-2.2402,-2.2465,-2.2469,-2.2473,0,0,0,0,0,0,0,0,0,0,0,0,0,-2.2299,-2.2237,-2.2388,-2.2376,-2.2375,-2.245,-2.2451,-2.2452,-2.2409,-2.2406,-2.2403,-2.2401,-2.2464,-2.2469,-2.2474,-2.2565,0,0,-2.249,-2.2492,0,0,0,0,0,0,0,0,-2.2295,-2.2304,-2.2377,-2.2377,-2.2376,-2.2419,-2.242,-2.249,-2.241,-2.2396,-2.2403,-2.2399,-2.2453,-2.2459,-2.2477,-2.2568,-2.2571,-2.2491,-2.2494,-2.2496,-2.2497,0,0,0,0,0,0,0,-2.229,-2.2301,-2.2413,-2.2378,-2.2378,-2.2367,-2.2373,-2.2433,-2.244,-2.2397,-2.2394,-2.2402,-2.2452,-2.2472,-2.2478,-2.2571,-2.249,-2.2495,-2.2498,-2.25,-2.2741,-2.2744,0,0,0,0,0,0,-2.2287,-2.2298,-2.2411,-2.2415,-2.2328,-2.2372,-2.2379,-2.2408,-2.2439,-2.2441,-2.2405,-2.24,-2.2464,-2.2472,-2.248,-2.2589,-2.2496,-2.2501,-2.2504,-2.2738,-2.2742,-2.2745,0,0,0,0,0,0,-2.2284,-2.2297,-2.2408,-2.2356,-2.2369,-2.2378,-2.2411,-2.2411,-2.243,-2.2445,-2.2446,-2.2424,-2.2462,-2.2473,-2.2544,-2.2591,-2.2503,-2.2508,-2.2734,-2.2739,-2.2744,-2.2809,0,0,0,0,0,0,-2.2279,-2.2297,-2.2331,-2.2357,-2.2372,-2.2472,-2.2414,-2.2414,-2.244,-2.2434,-2.2463,-2.2465,-2.2461,-2.2537,-2.255,-2.2597,-2.2512,-2.273,-2.2736,-2.2742,-2.2802,-2.2815,-2.2826,0,0,0,0,0,-2.2274,-2.2347,-2.2333,-2.2347,-2.2415,-2.2475,-2.2483,-2.2477,-2.2444,-2.2479,-2.2488,-2.2464,-2.2584,-2.2544,-2.2559,-2.2608,-2.2727,-2.2735,-2.2742,-2.2797,-2.2812,-2.2826,0,0,0,0,0,0,-2.2326,-2.235,-2.2335,-2.2418,-2.2445,-2.2467,-2.2511,-2.2494,-2.253,-2.2524,-2.2514,-2.2521,-2.2597,-2.2609,-2.2565,-2.2698,-2.265,-2.266,-2.2687,-2.2702,-2.2714,-2.271,-2.2517,0,0,0,0,0,-2.2347,-2.2394,-2.2412,-2.2483,-2.2497,-2.2502,-2.2528,-2.2521,-2.2548,-2.2559,-2.2573,-2.2601,-2.2645,-2.2674,-2.2715,-2.2803,-2.281,-2.2844,-2.2856,-2.2866,-2.2875,-2.2924,-2.294,-2.2769,-2.2769,-2.2769,0,0,-2.2392,-2.241,-2.244,-2.2494,-2.2514,-2.2562,-2.2512,-2.2565,-2.2601,-2.2567,-2.2636,-2.2648,-2.2678,-2.2759,-2.2795,-2.2771,-2.2924,-2.2875,-2.2883,-2.2887,-2.2933,-2.2949,-2.2964,-2.2774,-2.2773,-2.2773,0,0,-2.2497,-2.2515,-2.2578,-2.2599,-2.2629,-2.2632,-2.2647,-2.2673,-2.2679,-2.2748,-2.2724,-2.2766,-2.2842,-2.2865,-2.2886,-2.3001,-2.2981,-2.3014,-2.3077,-2.3124,-2.3138,-2.315,-2.3192,-2.3207,-2.3024,-2.3024,-2.3024,0,-2.2549,-2.262,-2.2612,-2.2667,-2.2692,-2.2663,-2.2727,-2.2747,-2.279,-2.2808,-2.2781,-2.2876,-2.2894,-2.298,-2.3008,-2.3026,-2.3043,-2.3012,-2.3136,-2.3148,-2.3159,-2.3199,-2.3215,-2.3028,-2.3027,-2.3027,-2.3026,0,-2.2683,-2.2733,-2.2779,-2.2822,-2.2852,-2.2911,-2.2911,-2.2943,-2.2933,-2.2939,-2.301,-2.303,-2.3076,-2.3095,-2.3086,-2.3181,-2.3165,-2.3137,-2.3089,-2.318,-2.3217,-2.3232,-2.3033,-2.3032,-2.3031,-2.303,0,0,-2.2823,-2.286,-2.2878,-2.2897,-2.2929,-2.2968,-2.3026,-2.307,-2.3098,-2.3128,-2.3177,-2.3241,-2.3216,-2.3241,-2.3234,-2.3275,-2.3366,-2.3242,-2.3243,-2.3266,-2.3473,-2.3495,-2.3513,-2.3353,-2.3355,-2.3358,-2.3471,0,-2.2932,-2.3033,-2.3027,-2.3122,-2.3169,-2.3143,-2.3193,-2.3218,-2.3225,-2.3266,-2.3273,-2.332,-2.3282,-2.3297,-2.3337,-2.3347,-2.3408,-2.3338,-2.3399,-2.3401,-2.3394,-2.3532,-2.3555,-2.3661,-2.3486,-2.3488,-2.349,0,-2.3072,-2.3108,-2.3208,-2.3233,-2.3253,-2.3298,-2.3339,-2.3378,-2.3406,-2.3408,-2.3436,-2.3422,-2.3481,-2.3431,-2.3512,-2.3465,-2.3489,-2.3498,-2.3502,-2.3508,-2.3452,-2.3544,-2.3695,-2.3711,-2.3513,-2.3511,-2.3509,0,-2.3167,-2.3239,-2.3309,-2.3326,-2.3357,-2.339,-2.3405,-2.343,-2.3457,-2.3493,-2.351,-2.3552,-2.3575,-2.3608,-2.3606,-2.3569,-2.3689,-2.3638,-2.3693,-2.3693,-2.3721,-2.3719,-2.3879,-2.3734,-2.3734,-2.3733,-2.3733,0,-2.3289,-2.3352,-2.3352,-2.3395,-2.3464,-2.3457,-2.3526,-2.3537,-2.3559,-2.3604,-2.3583,-2.3626,-2.362,-2.3663,-2.3662,-2.373,-2.374,-2.3744,-2.3743,-2.3747,-2.3747,-2.3764,-2.3757,-2.3738,-2.3737,-2.3736,-2.3735,0,-2.3407,-2.3409,-2.3484,-2.3507,-2.3515,-2.3565,-2.3585,-2.3626,-2.3631,-2.3688,-2.3701,-2.3709,-2.3759,-2.376,-2.3816,-2.3815,-2.3899,-2.3889,-2.389,-2.3889,-2.3944,-2.3939,-2.4122,-2.4146,-2.3984,-2.3985,-2.3986,0,-2.3486,-2.3533,-2.3562,-2.3591,-2.3608,-2.3654,-2.3682,-2.3676,-2.3706,-2.3742,-2.3779,-2.3826,-2.3864,-2.3944,-2.3955,-2.3998,-2.399,-2.4051,-2.3997,-2.3999,-2.3993,-2.3991,-2.3996,-2.4062,-2.4064,-2.4065,-2.4067,0,-2.3626,-2.3625,-2.3666,-2.3708,-2.3742,-2.3774,-2.3804,-2.3829,-2.3827,-2.3861,-2.3912,-2.3941,-2.3999,-2.4047,-2.4089,-2.4104,-2.4086,-2.4084,-2.4099,-2.4104,-2.4103,-2.4106,-2.3921,-2.408,-2.4078,-2.4077,-2.4077,-2.4076,-2.3728,-2.3769,-2.3796,-2.3843,-2.3865,-2.3894,-2.3934,-2.3944,-2.3986,-2.4033,-2.4026,-2.4083,-2.411,-2.4165,-2.4183,-2.4228,-2.4206,-2.4228,-2.4234,-2.424,-2.4247,-2.4095,-2.4235,-2.4235,-2.4234,-2.4234,-2.4234,0,-2.3868,-2.3884,-2.3927,-2.397,-2.4007,-2.3986,-2.4018,-2.4051,-2.4101,-2.4128,-2.4165,-2.4224,-2.427,-2.4284,-2.4329,-2.4362,-2.4355,-2.4374,-2.4373,-2.4377,-2.4262,-2.4245,-2.4379,-2.4379,-2.4379,-2.4379,-2.4379,-2.4379,-2.3945,-2.4015,-2.4017,-2.4098,-2.4113,-2.4168,-2.4189,-2.4216,-2.4237,-2.4304,-2.4342,-2.4351,-2.4373,-2.442,-2.4461,-2.4464,-2.4483,-2.4506,-2.4506,-2.4399,-2.4384,-2.437,-2.4355,-2.4509,-2.451,-2.4616,-2.4617,-2.4618]}]]